Location: Hamburg
(53.5500°N, 10.0000°E)
Time: 04:31:43
(UTC+02:00)

Daily predictions for brighter satellites

Satellite Brightness Start Highest point End
(mag) Time Altitude Azimuth Time Altitude Azimuth Time Altitude Azimuth
Cosmos 2026 Rocket 4.2 00:11:24 10° N 00:17:13 68° NE 00:17:13 68° NE
Nadezhda 4 Rocket 4.5 00:18:30 10° NNW 00:24:06 51° W 00:24:06 51° W
CZ-2C R/B 4.2 00:23:21 10° NNE 00:25:54 26° NE 00:25:54 26° NE
ATLAS 3B R/B 3.3 00:31:49 48° ENE 00:31:49 48° ENE 00:36:56 10° NE
USA 215 3.3 00:29:18 10° ENE 00:35:51 76° NNW 00:42:23 10° W
Cosmos 2297 Rocket 2.8 00:35:48 10° NNW 00:40:06 52° NNW 00:40:06 52° NNW
Lacrosse 4 Rocket 4.4 00:43:36 10° NNW 00:45:19 12° NNE 00:47:04 10° NE
CZ-4C R/B 2.8 00:47:27 57° NW 00:47:34 57° NNW 00:54:02 10° NE
Cosmos 2082 4.5 00:43:04 10° NNW 00:47:07 48° NW 00:47:07 48° NW
Cosmos 2369 Rocket 3.9 00:55:16 19° W 00:58:05 28° NW 01:02:55 10° NNE
Cosmos 2227 Rocket 3.3 01:01:50 10° NW 01:05:25 38° NW 01:05:25 38° NW
CZ-2C R/B 4.5 01:15:14 31° NW 01:15:14 31° NW 01:17:52 10° NNW
Cosmos 2279 Rocket 4.3 01:15:51 63° NNE 01:15:51 63° NNE 01:21:02 10° N
Lacrosse 5 4.3 01:14:30 10° WNW 01:15:20 15° WNW 01:15:20 15° WNW
USA 238 DEB 4.0 01:24:45 60° ENE 01:24:45 60° ENE 01:30:26 10° NE
USA 238 4.0 01:24:53 60° ENE 01:24:53 60° ENE 01:30:33 10° NE
Cosmos 1943 Rocket 3.7 01:25:31 28° WNW 01:26:37 30° NW 01:31:35 10° NNE
Cosmos 1980 Rocket 4.3 01:30:38 17° ENE 01:30:38 17° ENE 01:32:41 10° NE
ATLAS 5 CENTAUR R/B 3.9 01:25:54 10° WNW 01:30:34 30° N 01:35:40 10° ENE
Cosmos 2263 Rocket 3.8 01:29:40 10° NNW 01:34:33 29° NE 01:36:01 26° ENE
SL-16 R/B 4.3 01:50:11 18° E 01:53:11 27° NE 01:58:13 10° N
NOSS 3-2 (C) 4.3 01:54:59 44° ENE 01:54:59 44° ENE 01:59:54 10° NE
Meteor 2-10 Rocket 4.5 02:01:21 49° NE 02:01:21 49° NE 02:05:35 10° NNE
CENTAUR R/B 4.1 02:01:17 24° E 02:01:17 24° E 02:05:28 10° ENE
Iridium 4 Rocket 4.5 02:01:04 10° N 02:04:54 45° N 02:04:54 45° N
CZ-2C R/B 3.8 02:03:44 10° N 02:07:26 35° NNW 02:07:26 35° NNW
Cosmos 1656 4.5 02:11:20 47° NE 02:11:20 47° NE 02:15:20 10° NE
COSMOS 2455 3.2 02:13:59 61° NNE 02:13:59 61° NNE 02:19:00 10° NE
USA 215 3.4 02:12:12 10° E 02:18:41 68° N 02:25:10 10° WNW
ATLAS 3B R/B 3.3 02:19:01 44° WNW 02:20:54 54° NNW 02:27:47 10° NE
Cosmos 2297 Rocket 4.4 02:20:40 10° NW 02:21:54 15° WNW 02:21:54 15° WNW
Lacrosse 4 Rocket 3.7 02:21:50 10° NNW 02:24:10 23° N 02:24:10 23° N
Resurs 1-4 Rocket 4.2 02:30:09 10° NE 02:33:31 17° E 02:34:20 16° E
Cosmos 839 Rocket 4.1 02:34:10 81° NW 02:34:11 81° NW 02:40:36 10° NE
CZ-4C R/B 3.9 02:32:33 14° WNW 02:37:20 35° N 02:43:39 10° ENE
CZ-2D R/B 4.1 02:37:50 10° NE 02:41:49 20° E 02:42:54 19° ESE
Cosmos 2322 Rocket 3.7 02:42:25 26° E 02:42:25 26° E 02:46:39 10° NE
Cosmos 968 Rocket 4.2 02:38:45 10° NNW 02:42:59 50° NNE 02:42:59 50° NNE
Meteor 1-11 Rocket 4.0 02:42:06 10° N 02:47:25 65° NE 02:47:25 65° NE
SL-16 R/B 3.5 02:48:54 29° E 02:48:54 29° E 02:53:28 10° NE
Cosmos 1697 Rocket 2.9 02:53:06 67° N 02:53:06 67° N 02:58:02 10° NNE
Meteor 1-10 Rocket 4.5 02:53:48 68° ENE 02:53:48 68° ENE 02:59:24 10° NNE
NOSS 3-2 (A) 3.6 02:53:39 70° WNW 02:53:58 71° NW 03:01:00 10° NE
Cosmos 1553 Rocket 4.0 02:54:59 78° ESE 02:55:03 78° E 03:01:29 10° NNE
Cosmos 44 4.3 02:57:24 41° NE 02:57:24 41° NE 03:00:27 10° NE
NPP 4.2 02:53:18 10° NNE 02:58:16 51° E 02:58:16 51° E
Meteor 1-27 Rocket 4.3 03:01:21 52° ESE 03:01:37 52° E 03:07:18 10° NNE
S3M 3.8 03:06:41 87° ENE 03:06:41 87° ENE 03:12:47 10° N
Cosmos 1302 Rocket 4.4 03:09:48 57° NNW 03:09:48 57° NNW 03:14:13 10° NNE
Cosmos 2278 Rocket 4.5 03:06:07 10° NNW 03:10:35 23° NNE 03:15:02 10° E
Cosmos 2360 Rocket 4.1 03:10:29 18° ESE 03:11:49 20° E 03:15:45 10° NE
Cosmos 1980 Rocket 2.2 03:12:23 78° NNE 03:12:23 78° NNE 03:17:43 10° NNE
USA 238 DEB 4.5 03:12:09 32° WNW 03:14:55 47° NNW 03:21:42 10° NE
USA 238 4.5 03:12:16 33° WNW 03:15:00 47° NNW 03:21:49 10° NE
UNK 4.3 03:16:54 56° NNE 03:16:54 56° NNE 03:20:52 10° N
ATLAS 5 CENTAUR R/B 3.3 03:11:11 10° NW 03:16:31 43° NNE 03:22:21 10° E
Cosmos 2263 Rocket 2.6 03:13:29 10° NW 03:17:40 52° NW 03:17:40 52° NW
Cosmos 44 Rocket 3.8 03:21:09 55° N 03:21:09 55° N 03:25:20 10° NE
ARIANE 5 R/B 3.6 03:17:18 10° NNE 03:22:02 36° E 03:22:48 34° ESE
Cosmos 1709 Rocket 4.0 03:16:39 10° N 03:22:56 80° E 03:24:00 63° SSE
IRS-1C 4.1 03:29:10 10° NNE 03:34:32 72° ESE 03:34:49 71° SE
ADEOS Rocket 3.8 03:30:15 10° NNE 03:35:28 39° E 03:37:15 31° SE
SL-16 R/B 2.4 03:35:16 66° S 03:36:14 83° WSW 03:42:31 10° NNW
Cosmos 883 Rocket 4.4 03:38:46 63° S 03:39:51 84° E 03:46:07 10° NNE
Meteor 1-5 Rocket 3.9 03:37:45 10° NNW 03:43:05 86° WSW 03:43:06 86° WSW
NOSS 3-2 (C) 4.0 03:42:25 42° WNW 03:44:18 55° NNW 03:51:18 10° NE
Cosmos 1346 Rocket 3.7 03:46:32 47° NNE 03:46:32 47° NNE 03:49:24 10° NNE
CENTAUR R/B 2.5 03:48:27 61° SW 03:49:46 89° SE 03:57:04 10° NE
Cosmos 1777 Rocket 3.9 03:45:01 10° NNW 03:50:21 88° WSW 03:50:54 73° SSE
IRS-1D 3.7 03:45:52 10° NNE 03:50:48 61° ESE 03:51:29 55° SE
Okean 3 3.8 03:51:19 66° NE 03:51:19 66° NE 03:55:05 10° NNE
Meteor 2-6 Rocket 4.4 03:50:54 54° W 03:51:08 55° WNW 03:56:53 10° N
Okean 1 Rocket 4.4 03:49:16 10° NNW 03:51:41 30° NW 03:51:41 30° NW
Cosmos 1812 4.1 03:54:20 32° ESE 03:54:39 33° E 03:58:09 10° NNE
Cosmos 1544 Rocket 4.2 03:51:23 10° N 03:55:48 55° ENE 03:56:59 41° SE
AQUA 3.8 03:51:57 10° N 03:56:32 67° NW 03:56:32 67° NW
IRS-P3 4.2 03:51:50 10° N 03:57:05 57° WNW 03:57:21 56° W
COSMOS 2455 4.2 03:57:07 22° WNW 03:59:44 31° NNW 04:05:03 10° NE
USA 215 3.1 03:55:05 10° ESE 04:01:40 84° SSW 04:08:15 10° WNW
Lacrosse 4 Rocket 4.0 04:00:19 10° NW 04:00:28 11° NW 04:00:28 11° NW
Cosmos 2360 4.5 04:03:44 49° W 04:04:39 54° NW 04:10:18 10° NNE
Cosmos 1844 4.4 03:59:49 10° NNW 04:05:33 56° NE 04:11:11 10° SE
Landsat 4 4.2 04:05:37 58° ENE 04:05:42 58° ENE 04:09:24 10° N
USA 161 4.2 04:11:12 15° N 04:11:12 15° N 04:11:46 10° N
ATLAS 3B R/B 4.0 04:06:24 10° WNW 04:13:01 36° N 04:19:20 10° ENE
Resurs 1-4 Rocket 2.0 04:08:49 10° NNE 04:14:09 89° ESE 04:15:26 53° SSW
SL-08 ROCKET BODY 4.2 04:08:27 10° NNW 04:14:22 86° W 04:17:09 33° S
Cosmos 2184 Rocket 4.0 04:09:54 10° N 04:16:09 84° E 04:20:58 18° SSE
CBERS-1 4.5 04:16:33 10° N 04:21:25 43° WNW 04:21:58 42° W
COBE Rocket 4.2 04:16:48 10° NNE 04:21:56 68° E 04:24:08 34° S
Cosmos 1378 Rocket 3.7 04:22:13 56° WNW 04:22:13 56° WNW 04:26:21 10° N
CZ-2D R/B 2.1 04:17:03 10° NNE 04:22:35 83° WNW 04:24:14 47° SSW
Meteor 1-12 Rocket 4.2 04:17:59 10° NNW 04:23:41 87° ENE 04:28:24 16° SSE
UNKNOWN OBJECT B 2.8 04:21:54 10° NNE 04:25:37 66° ESE 04:25:57 61° SE
Cosmos 2322 Rocket 2.2 04:24:14 49° WSW 04:25:39 69° NW 04:31:17 10° NNE
Okean O Rocket 3.7 04:22:35 10° NE 04:26:16 25° E 04:29:56 10° SSE
CZ-4C R/B 3.8 04:21:11 10° NW 04:27:22 44° NNE 04:34:23 10° E
Cosmos 1455 Rocket 3.0 04:24:52 10° NNW 04:29:18 89° W 04:30:47 42° S
SL-16 R/B 2.3 04:30:45 44° WSW 04:32:24 64° NW 04:38:05 10° NNE
Cosmos 1500 3.1 04:28:48 10° NNW 04:32:41 87° W 04:33:05 70° S
ADEOS II 3.9 04:29:58 10° NNE 04:34:32 29° E 04:39:04 10° SSE
Cosmos 1844 Rocket 2.5 04:30:01 10° NNW 04:35:40 83° WSW 04:41:14 10° SSE
Orbus 7S? 4.0 04:33:05 38° WSW 04:35:41 88° SSE 04:39:26 10° ENE
Cosmos 2219 Rocket 4.2 04:32:07 10° SSE 04:36:27 24° ESE 04:40:49 10° NE
Cosmos 1697 Rocket 4.2 04:34:49 19° WNW 04:37:11 25° NW 04:41:49 10° NNE
Cosmos 44 4.4 04:35:48 26° WNW 04:37:24 32° NNW 04:41:33 10° NE
SL-8 R/B 4.1 04:38:24 41° S 04:38:24 41° S 04:42:45 10° ESE
EO 1 Del DPAF 4.4 04:36:09 10° SE 04:39:50 45° ENE 04:43:34 10° N
DNEPR-1 R/B 4.0 04:39:50 41° WSW 04:41:36 67° NW 04:46:21 10° NE
Cosmos 1975 Rocket 3.1 04:42:08 52° WSW 04:42:44 58° WNW 04:47:03 10° N
CZ-2D R/B 3.6 04:39:27 10° NNE 04:43:56 85° ESE 04:45:40 37° S
COSMOS 2428 3.7 04:41:01 16° S 04:45:10 43° ESE 04:50:31 10° NE
CZ-4B R/B 4.5 04:42:23 10° NE 04:45:34 28° E 04:48:48 10° SSE
Cosmos 1461 4.2 04:44:38 24° NW 04:45:41 27° NNW 04:49:08 10° NNE
Cosmos 2154 Rocket 4.0 04:44:11 10° N 04:50:26 83° E 04:56:39 10° SSE
ADEOS 3.9 04:47:14 10° N 04:52:15 48° WNW 04:54:00 34° WSW
CZ-2C R/B 4.3 04:47:55 10° SSE 04:52:22 57° ENE 04:56:47 10° N
MOS 1 Rocket 3.6 04:48:36 10° NNE 04:53:22 65° E 04:56:40 18° S
Cosmos 2360 Rocket 2.1 04:52:16 31° SSW 04:55:06 90° WNW 05:00:49 10° NNE
Meteor 2-13 Rocket 4.4 04:49:05 10° NNW 04:55:11 66° W 05:01:15 10° S
Cosmos 1867 3.5 04:49:42 10° NW 04:55:12 80° SW 05:00:39 10° SE
Cosmos 2278 Rocket 2.5 04:50:01 10° NNW 04:55:42 70° NE 05:01:22 10° SE
Cosmos 1980 Rocket 3.6 04:54:08 19° WNW 04:56:47 27° NW 05:01:35 10° NNE
ERBS 2.5 04:59:00 32° WNW 05:00:30 72° NNE 05:03:59 10° ESE
ARIANE 5 R/B 3.0 04:56:26 10° N 05:01:16 43° WNW 05:03:09 31° WSW
ATLAS 5 CENTAUR R/B 2.2 04:55:53 10° NW 05:01:40 75° SW 05:08:01 10° SE
Cosmos 2263 Rocket 4.2 04:58:50 10° WNW 04:59:20 11° WNW 04:59:20 11° WNW
Okean 1 3.2 05:00:46 34° SSW 05:02:29 77° W 05:06:35 10° N
Cosmos 1536 Rocket 3.6 04:59:37 21° S 05:02:38 81° E 05:07:09 10° NNE
Cosmos 1238 Rocket 3.6 05:00:49 15° SSE 05:02:58 37° E 05:05:55 10° NNE
Cosmos 2237 Rocket 4.2 05:02:27 10° SSE 05:06:57 25° ESE 05:11:30 10° NE
MTI 4.0 05:03:46 10° SSE 05:07:03 74° ENE 05:10:22 10° N
Cosmos 1610 Rocket 4.5 05:01:08 10° NNW 05:07:19 63° W 05:13:32 10° S
Genesis I 3.9 05:06:44 31° W 05:08:01 42° NW 05:11:49 10° NE
MOZ.5/SAFIR/RUBIN 5/SL-8 4.4 05:09:18 30° WSW 05:10:03 32° W 05:14:15 10° NNW
Cosmos 2150 Rocket 4.1 05:05:43 10° NNW 05:11:01 82° ENE 05:16:23 10° SSE
Cosmos 1898 Rocket 3.4 05:06:42 10° NNW 05:11:57 81° WSW 05:17:07 10° SSE
Cosmos 1975 3.4 05:08:24 10° NNW 05:12:10 36° W 05:12:54 33° WSW
Molniya-1 4.0 05:11:57 43° W 05:12:43 61° NNW 05:17:10 10° NE
Nadezhda 1 Rocket 3.9 05:08:15 14° SSW 05:13:33 79° WNW 05:19:40 10° N
PSLV R/B 3.8 05:12:46 10° NNE 05:16:32 78° ESE 05:19:32 16° S
Cosmos 1570 Rocket 4.0 05:15:35 17° SSW 05:19:39 84° ESE 05:24:56 10° NNE
SL-16 R/B 3.8 05:20:20 19° W 05:20:49 19° W 05:25:03 10° NW
ADEOS Rocket 3.3 05:15:53 10° N 05:21:08 42° WNW 05:24:12 22° WSW
Cosmos 1606 Rocket 4.3 05:22:06 10° N 05:26:32 57° ENE 05:30:57 10° SSE
Cosmos 1340 3.0 05:25:43 26° SW 05:27:29 47° WNW 05:31:11 10° N
PAYLOAD B 4.5 05:22:25 10° NNE 05:28:04 73° ESE 05:33:41 10° S
Okean 1-7 Rocket 4.2 05:26:06 10° S 05:30:31 58° E 05:34:55 10° NNE
Cosmos 1812 3.8 05:29:29 24° W 05:30:33 27° WNW 05:33:55 10° N
Cosmos 858 Rocket 4.5 05:27:04 10° NNW 05:32:19 66° WSW 05:37:31 10° SSE
Cosmos 2333 Rocket 3.2 05:26:59 10° S 05:32:25 46° ESE 05:37:54 10° NE
Cosmos 2341 Rocket 4.0 05:27:41 10° NNW 05:33:54 68° W 05:40:04 10° S
Cosmos 1666 2.7 05:30:54 10° NNW 05:34:44 63° W 05:38:35 10° S
Cosmos 2218 Rocket 4.3 05:30:51 10° N 05:37:18 76° ENE 05:43:38 10° SSE
Cosmos 2322 3.9 05:33:31 19° SW 05:37:38 58° NW 05:43:19 10° NNE
Cosmos 1937 Rocket 3.5 05:33:04 10° NNW 05:38:24 70° WSW 05:43:39 10° SSE
CENTAUR R/B 3.5 05:35:37 14° W 05:41:13 44° NNW 05:48:26 10° NE
IRS-1C Rocket 4.1 05:38:53 10° NNE 05:44:12 89° WNW 05:49:28 10° SSW
Cosmos 2228 4.3 05:40:13 10° N 05:44:24 45° ENE 05:48:35 10° SSE
USA 215 3.7 05:39:13 10° SSE 05:45:13 38° SW 05:51:15 10° WNW
Cosmos 1743 3.5 05:43:06 10° NNW 05:46:34 31° W 05:49:58 10° SSW
Cosmos 405 Rocket 3.8 05:43:04 10° S 05:46:58 49° E 05:50:49 10° NNE
Cosmos 1844 4.3 05:44:19 10° NW 05:49:30 35° WSW 05:54:37 10° S
Resurs 1-4 Rocket 3.6 05:49:33 10° N 05:53:22 21° NW 05:56:32 13° W
Cosmos 1437 3.8 05:52:28 10° S 05:55:38 49° E 05:58:49 10° NNE
Cosmos 2333 4.2 05:51:17 10° SW 05:56:58 77° NW 06:02:45 10° NNE
CZ-4B R/B 3.3 05:51:30 10° NNE 05:57:12 78° WNW 06:02:46 10° SSW
USA 229 DEB 4.1 05:51:26 10° SSW 05:58:12 64° SE 06:05:07 10° NE
USA 229 4.1 05:51:33 10° SSW 05:58:18 64° SE 06:05:13 10° NE
CZ-4B DEB 4.2 05:54:22 10° NNE 05:59:58 75° WNW 06:05:30 10° SSW
Cosmos 1025 Rocket 3.1 05:56:17 10° S 06:00:42 89° ESE 06:05:08 10° NNE
Cosmos 1726 Rocket 3.6 05:56:24 10° NNW 06:00:53 84° WSW 06:05:21 10° S
Meteor PRIRODA 3.9 05:57:20 10° NNE 06:01:07 77° ESE 06:04:53 10° S
CZ-2D R/B 3.7 05:58:06 10° N 06:01:56 20° NW 06:05:35 11° W
Okean O Rocket 1.9 05:58:35 10° N 06:02:54 50° WNW 06:07:13 10° SW
Meteor 1-31 Rocket 3.3 06:00:29 10° NNE 06:04:17 62° ESE 06:08:03 10° S
SL-16 R/B 4.2 05:59:49 10° SSE 06:04:40 30° ESE 06:09:33 10° NE
ATLAS 3B R/B 3.7 05:58:24 10° NW 06:05:15 48° NNE 06:11:42 10° E
COSMO-SKYMED 1 3.1 06:02:19 10° SSE 06:06:38 66° ENE 06:10:58 10° N
BREEZE M DEB (TANK) 4.3 05:55:31 10° WNW 06:07:15 37° SW 06:11:21 10° SSE
Cosmos 1959 Rocket 4.4 06:01:26 10° NNW 06:07:32 72° W 06:13:38 10° S
Cosmos 1814 Rocket 4.3 06:03:02 10° SSW 06:08:10 69° ESE 06:13:18 10° NNE
Cosmos 2322 Rocket 3.7 06:06:24 10° W 06:10:45 22° NNW 06:15:06 10° NNE
Cosmos 405 3.2 06:09:00 10° N 06:12:34 78° ENE 06:16:07 10° SSE
Cosmos 2285 Rocket 4.1 06:06:07 10° SSW 06:12:34 88° ESE 06:19:03 10° NNE
Meteor 1-13 Rocket 4.5 06:08:03 10° SW 06:13:27 50° WNW 06:19:00 10° N
Cosmos 1980 4.0 06:08:27 10° SSW 06:14:03 72° ESE 06:19:43 10° NE
ADEOS II 2.3 06:09:25 10° N 06:14:35 55° WNW 06:19:41 10° SW
Okean 2 3.4 06:10:50 10° S 06:15:00 89° WNW 06:19:14 10° N
USA 116 4.4 06:11:05 10° S 06:15:31 51° W 06:20:30 10° NNW
Iridium 2 3.8 06:12:01 10° NNW 06:15:45 52° W 06:19:28 10° SSW
Cosmos 2369 Rocket 3.9 06:11:20 10° NNW 06:16:26 35° NE 06:21:32 10° ESE
CZ-4C R/B 2.9 06:09:48 10° NW 06:16:38 88° SW 06:24:21 10° SE
SL-16 R/B 3.8 06:13:19 10° W 06:17:39 22° NNW 06:22:00 10° NNE
Cosmos 1892 Rocket 3.8 06:14:22 10° S 06:18:42 74° E 06:23:08 10° NNE
Cosmos 1844 Rocket 4.0 06:15:12 10° WNW 06:18:43 17° W 06:22:14 10° SW
IRAS Rocket 4.3 06:13:58 10° NNE 06:19:27 64° WNW 06:24:57 10° SW
ERS-2 2.1 06:15:49 10° NNE 06:19:33 88° WNW 06:23:15 10° SSW
Cosmos 2219 Rocket 2.2 06:14:17 10° SW 06:19:52 76° NW 06:25:31 10° NNE
Okean-O 2.8 06:15:29 10° NNE 06:19:57 81° ESE 06:24:25 10° SSW
Geosat 4.1 06:15:42 10° SE 06:20:45 86° ENE 06:25:50 10° NNW
CZ-4B R/B 3.6 06:17:36 10° N 06:20:47 29° WNW 06:24:00 10° SW
Cosmos 1437 Rocket 3.3 06:17:04 10° N 06:21:13 70° ENE 06:25:17 10° SSE
CZ-4B R/B 4.2 06:17:33 10° NNE 06:22:06 89° E 06:26:37 10° SSW
Cosmos 2366 rocket 4.1 06:16:36 10° NNW 06:22:53 64° W 06:29:10 10° S
CZ-3A R/B 2.3 06:22:50 10° S 06:24:03 17° SE 06:26:08 10° E
COSMOS 2428 3.2 06:23:59 10° WSW 06:29:28 47° NW 06:34:58 10° NNE
